Location: Noverd
(38.0910°N, 121.6877°W)
Time: 05:28:48
(UTC+00:00)

Cosmos 2100 Rocket - Pass Details

Date: 18 May 2026
Orbit: 956 x 999 km, 82.9° (Epoch: 8 June)

Event Time Altitude Azimuth Distance (km) Brightness Sun altitude
Rises 03:44:31 0° 194° (SSW) 3,650 6.8 -6.4°
Reaches altitude 10° 03:47:02 10° 197° (SSW) 2,713 6.2 -6.8°
Maximum altitude 03:53:12 64° 279° (W) 1,082 4.6 -7.8°
Drops below altitude 10° 03:59:29 10° 0° (N) 2,759 6.8 -8.9°
Sets 04:02:04 0° 4° (N) 3,716 7.5 -9.3°
